GW0914 Weather Reports


Display with metric or nautical units.
time (UTC)temp
F
wind
direction
speed
MPH
gust
MPH
rain 1hr
in
rain 24hr
in
rain mn
in
humidity
%
barometer
mb
20260510192406 66 242 1.0 2.0 0.00 0.00 0.00 48 1013.9
20260510191902 67 276 2.0 2.0 0.00 0.00 0.00 45 1013.9
20260510191358 66 278 1.0 2.0 0.00 0.00 0.00 49 1013.9
20260510190856 66 262 1.0 2.0 0.00 0.00 0.00 47 1013.9
20260510190353 64 261 1.0 2.0 0.00 0.00 0.00 49 1013.8
20260510185849 66 287 2.0 3.0 0.00 0.00 0.00 50 1013.7
20260510185347 66 309 1.0 2.0 0.00 0.00 0.00 51 1013.7
20260510184844 67 325 5.0 6.0 0.00 0.00 0.00 48 1013.9
20260510184342 66 267 2.0 2.0 0.00 0.00 0.00 53 1013.9
20260510183841 66 278 3.0 3.0 0.00 0.00 0.00 50 1013.6
20260510183337 65 301 2.0 2.0 0.00 0.00 0.00 53 1013.8
20260510182833 65 257 1.0 1.0 0.00 0.00 0.00 51 1013.7
20260510182330 64 265 1.0 1.0 0.00 0.00 0.00 54 1013.8
20260510181825 65 254 0.0 1.0 0.00 0.00 0.00 51 1013.8
20260510181323 65 265 1.0 1.0 0.00 0.00 0.00 49 1013.9
20260510180819 64 259 1.0 1.0 0.00 0.00 0.00 53 1013.9
20260510180316 65 268 3.0 3.0 0.00 0.00 0.00 51 1013.8
20260510175813 64 253 1.0 2.0 0.00 0.00 0.00 51 1013.7
20260510175309 64 284 3.0 3.0 0.00 0.00 0.00 49 1013.5
20260510174806 63 274 2.0 2.0 0.00 0.00 0.00 52 1013.2
20260510174303 64 265 3.0 3.0 0.00 0.00 0.00 54 1013.5
20260510173759 64 266 2.0 3.0 0.00 0.00 0.00 55 1013.5
20260510173255 64 288 2.0 2.0 0.00 0.00 0.00 51 1013.6
20260510172751 64 270 2.0 2.0 0.00 0.00 0.00 47 1013.6
20260510172247 64 288 3.0 3.0 0.00 0.00 0.00 53 1013.3
20260510171744 63 246 0.0 1.0 0.00 0.00 0.00 49 1013.6
20260510171241 64 297 3.0 3.0 0.00 0.00 0.00 51 1013.5
20260510170738 64 250 0.0 1.0 0.00 0.00 0.00 47 1013.3
20260510170234 63 280 1.0 2.0 0.00 0.00 0.00 52 1013.5
20260510165730 64 307 3.0 3.0 0.00 0.00 0.00 55 1013.6
20260510165226 64 296 2.0 2.0 0.00 0.00 0.00 48 1013.6
20260510164724 63 291 1.0 1.0 0.00 0.00 0.00 53 1013.8
20260510164221 64 283 1.0 2.0 0.00 0.00 0.00 50 1013.8
20260510163716 63 251 1.0 1.0 0.00 0.00 0.00 57 1013.6
20260510163212 63 70 3.0 5.0 0.00 0.00 0.00 51 1013.8
20260510162711 63 258 1.0 1.0 0.00 0.00 0.00 54 1013.6
20260510162209 63 33 3.0 5.0 0.00 0.00 0.00 55 1013.8
20260510161705 63 277 2.0 2.0 0.00 0.00 0.00 54 1013.7
20260510161201 62 248 0.0 0.0 0.00 0.00 0.00 53 1013.7
20260510160658 63 291 2.0 2.0 0.00 0.00 0.00 52 1013.5
20260510160153 62 274 1.0 1.0 0.00 0.00 0.00 47 1013.5
20260510155649 62 291 0.0 1.0 0.00 0.00 0.00 47 1013.2
20260510155145 62 291 1.0 1.0 0.00 0.00 0.00 56 1013.6
20260510154641 63 298 1.0 2.0 0.00 0.00 0.00 52 1013.2
20260510154137 63 229 0.0 1.0 0.00 0.00 0.00 51 1013.5
20260510153632 62 288 1.0 1.0 0.00 0.00 0.00 57 1013.1
20260510153129 62 339 2.0 3.0 0.00 0.00 0.00 57 1013.0
20260510152626 62 245 1.0 2.0 0.00 0.00 0.00 53 1013.1
20260510152121 61 283 2.0 2.0 0.00 0.00 0.00 59 1013.1
20260510151618 61 343 3.0 3.0 0.00 0.00 0.00 56 1013.1
20260510151117 61 289 2.0 2.0 0.00 0.00 0.00 55 1012.7
20260510150616 61 259 1.0 2.0 0.00 0.00 0.00 57 1012.6
20260510150113 61 304 2.0 2.0 0.00 0.00 0.00 61 1012.7
20260510145609 60 290 1.0 1.0 0.00 0.00 0.00 57 1012.7
20260510145106 60 24 2.0 2.0 0.00 0.00 0.00 59 1012.6
20260510144602 60 291 1.0 1.0 0.00 0.00 0.00 59 1012.6
20260510144058 60 241 0.0 0.0 0.00 0.00 0.00 57 1012.6
20260510143553 60 220 0.0 0.0 0.00 0.00 0.00 58 1012.4
20260510143050 59 255 0.0 1.0 0.00 0.00 0.00 63 1012.3
20260510142547 58 254 0.0 0.0 0.00 0.00 0.00 62 1012.2
20260510142044 58 285 2.0 2.0 0.00 0.00 0.00 62 1012.3
20260510141540 57 252 0.0 0.0 0.00 0.00 0.00 61 1012.1
20260510141038 57 27 1.0 2.0 0.00 0.00 0.00 62 1012.3
20260510140534 56 254 0.0 0.0 0.00 0.00 0.00 65 1011.8
20260510140034 56 249 0.0 0.0 0.00 0.00 0.00 63 1012.2
20260510135530 55 269 1.0 1.0 0.00 0.00 0.00 64 1012.1
20260510135026 56 233 0.0 0.0 0.00 0.00 0.00 64 1012.2
20260510134524 55 294 0.0 1.0 0.00 0.00 0.00 66 1011.8
20260510134020 55 223 1.0 1.0 0.00 0.00 0.00 64 1011.8
20260510133516 55 272 1.0 1.0 0.00 0.00 0.00 65 1011.9
20260510133013 55 333 1.0 1.0 0.00 0.00 0.00 66 1011.7
20260510132509 54 308 1.0 2.0 0.00 0.00 0.00 65 1011.8
20260510132006 54 262 1.0 1.0 0.00 0.00 0.00 67 1011.9
20260510131504 54 57 0.0 0.0 0.00 0.00 0.00 67 1011.9
20260510131001 54 262 0.0 1.0 0.00 0.00 0.00 65 1011.8
20260510130457 53 31 2.0 2.0 0.00 0.00 0.00 66 1011.6
20260510125954 53 243 0.0 0.0 0.00 0.00 0.00 67 1011.6
20260510125451 53 19 1.0 1.0 0.00 0.00 0.00 68 1011.5
20260510124947 52 267 0.0 0.0 0.00 0.00 0.00 73 1011.3
20260510124443 52 273 1.0 1.0 0.00 0.00 0.00 73 1011.3
20260510123940 52 263 0.0 1.0 0.00 0.00 0.00 72 1011.2
20260510123436 52 263 0.0 0.0 0.00 0.00 0.00 72 1011.4
20260510122932 52 284 1.0 1.0 0.00 0.00 0.00 74 1011.4
20260510122433 52 288 0.0 0.0 0.00 0.00 0.00 73 1011.1
20260510121929 52 259 0.0 1.0 0.00 0.00 0.00 75 1011.2
20260510121427 52 257 0.0 0.0 0.00 0.00 0.00 74 1011.1
20260510120925 52 248 0.0 0.0 0.00 0.00 0.00 72 1011.1
20260510120421 52 257 0.0 0.0 0.00 0.00 0.00 74 1011.2
20260510115917 52 261 0.0 0.0 0.00 0.00 0.00 73 1010.9
20260510115415 52 267 0.0 0.0 0.00 0.00 0.00 73 1010.9
20260510114910 52 254 0.0 0.0 0.00 0.00 0.00 74 1010.8
20260510114407 52 271 1.0 1.0 0.00 0.00 0.00 73 1010.8
20260510113902 52 265 1.0 1.0 0.00 0.00 0.00 72 1010.6
20260510113358 52 259 0.0 0.0 0.00 0.00 0.00 74 1010.9
20260510112855 52 258 0.0 0.0 0.00 0.00 0.00 75 1010.6
20260510112353 52 257 0.0 0.0 0.00 0.00 0.00 73 1010.4
20260510111849 52 341 1.0 1.0 0.00 0.00 0.00 74 1009.9
20260510111345 52 273 1.0 1.0 0.00 0.00 0.00 76 1009.8
20260510110840 52 271 1.0 1.0 0.00 0.00 0.00 78 1009.9
20260510110338 52 250 0.0 0.0 0.00 0.00 0.00 77 1010.1
20260510105834 52 255 0.0 0.0 0.00 0.00 0.00 76 1010.0
20260510105333 52 255 0.0 0.0 0.00 0.00 0.00 77 1009.9
20260510104830 52 277 1.0 1.0 0.00 0.00 0.00 77 1009.7
20260510104327 52 259 0.0 0.0 0.00 0.00 0.00 78 1009.5
20260510103823 52 267 0.0 1.0 0.00 0.00 0.00 78 1009.4
20260510103320 53 257 0.0 1.0 0.00 0.00 0.00 80 1009.5
20260510102816 53 293 0.0 1.0 0.00 0.00 0.00 81 1009.3
20260510102312 53 276 1.0 1.0 0.00 0.00 0.00 81 1009.1
20260510101809 53 265 1.0 1.0 0.00 0.00 0.00 83 1009.0
20260510101307 53 272 0.0 1.0 0.00 0.00 0.00 84 1008.8
20260510100803 53 256 0.0 0.0 0.00 0.00 0.00 85 1008.7
20260510100301 53 257 0.0 1.0 0.00 0.00 0.00 85 1008.6
20260510095756 53 255 0.0 0.0 0.00 0.00 0.00 84 1008.8
20260510095252 53 255 0.0 0.0 0.00 0.00 0.00 84 1008.7
20260510094751 53 279 1.0 1.0 0.00 0.00 0.00 83 1008.8
20260510094246 54 258 0.0 1.0 0.00 0.00 0.00 84 1008.5
20260510093742 54 252 0.0 0.0 0.00 0.00 0.00 84 1008.3
20260510093240 54 275 1.0 1.0 0.00 0.00 0.00 84 1008.4
20260510092736 54 248 0.0 0.0 0.00 0.00 0.00 84 1008.3
20260510092231 54 246 0.0 0.0 0.00 0.00 0.00 85 1008.3
20260510091727 53 256 0.0 0.0 0.00 0.00 0.00 85 1008.0
20260510091224 54 242 0.0 0.0 0.00 0.00 0.00 85 1007.6
20260510090721 54 241 0.0 0.0 0.00 0.00 0.00 84 1007.9
20260510090218 55 250 0.0 0.0 0.00 0.00 0.00 82 1007.6
20260510085713 55 256 0.0 1.0 0.00 0.00 0.00 81 1007.5
20260510085208 55 280 0.0 0.0 0.00 0.00 0.00 81 1007.3
20260510084704 56 252 0.0 0.0 0.00 0.00 0.00 80 1007.1
20260510084202 56 228 2.0 2.0 0.00 0.00 0.00 79 1007.0
20260510083658 57 269 1.0 2.0 0.00 0.00 0.00 80 1006.9
20260510083155 57 294 2.0 3.0 0.00 0.00 0.00 82 1007.1
20260510082651 57 258 1.0 1.0 0.00 0.00 0.00 83 1006.7
20260510082146 57 287 1.0 1.0 0.00 0.00 0.00 82 1006.9
20260510081642 58 259 0.0 1.0 0.00 0.00 0.00 81 1006.9
20260510081138 58 272 1.0 1.0 0.00 0.00 0.00 80 1006.6
20260510080637 59 287 2.0 2.0 0.00 0.00 0.00 78 1006.7
20260510080134 59 296 3.0 3.0 0.00 0.00 0.00 77 1006.9
20260510075631 59 285 3.0 3.0 0.00 0.00 0.00 76 1006.7
20260510075129 60 268 1.0 2.0 0.00 0.00 0.00 75 1006.7
20260510074625 60 256 5.0 6.0 0.00 0.00 0.00 75 1006.8
20260510074121 60 269 2.0 2.0 0.00 0.00 0.00 74 1006.6
20260510073617 60 262 3.0 3.0 0.00 0.00 0.00 74 1006.6
20260510073114 60 260 3.0 3.0 0.00 0.00 0.00 73 1006.7
20260510072610 60 277 4.0 5.0 0.00 0.00 0.00 73 1006.5
20260510072107 60 281 3.0 3.0 0.00 0.00 0.00 72 1006.7
20260510071603 61 265 3.0 3.0 0.00 0.00 0.00 71 1006.7
20260510071101 61 273 4.0 6.0 0.00 0.00 0.00 70 1006.7
20260510070558 61 263 5.0 6.0 0.00 0.00 0.00 70 1006.8
20260510070055 61 263 5.0 6.0 0.00 0.00 0.00 70 1006.6
20260510065551 61 265 3.0 5.0 0.00 0.00 0.00 71 1006.7
20260510065047 62 278 3.0 3.0 0.00 0.00 0.00 70 1006.6
20260510064543 62 267 3.0 5.0 0.00 0.00 0.00 71 1006.7
20260510064040 62 263 3.0 3.0 0.00 0.00 0.00 71 1006.6
20260510063537 62 264 2.0 3.0 0.00 0.00 0.00 72 1006.7
20260510063035 62 257 4.0 5.0 0.00 0.00 0.00 71 1006.7
20260510062530 62 263 5.0 6.0 0.00 0.00 0.00 72 1006.8
20260510062025 62 265 5.0 6.0 0.00 0.00 0.00 73 1006.8
20260510061522 62 265 6.0 7.0 0.00 0.00 0.00 74 1006.8
20260510061019 62 254 6.0 8.0 0.00 0.00 0.00 75 1006.8
20260510060515 62 257 6.0 7.0 0.00 0.00 0.00 75 1006.9
20260510060012 62 282 5.0 6.0 0.00 0.00 0.00 75 1007.0
20260510055507 61 257 7.0 8.0 0.00 0.00 0.00 75 1006.8
20260510055006 60 259 4.0 5.0 0.00 0.00 0.00 79 1006.9
20260510054501 60 273 2.0 2.0 0.00 0.00 0.00 79 1006.9
20260510053956 60 252 2.0 2.0 0.00 0.00 0.00 79 1006.8
20260510053451 60 247 0.0 0.0 0.00 0.00 0.00 79 1006.7
20260510052948 60 244 2.0 2.0 0.00 0.00 0.00 78 1006.5
20260510052444 60 263 1.0 1.0 0.00 0.00 0.00 78 1006.4
20260510051941 60 245 1.0 1.0 0.00 0.00 0.00 78 1006.5
20260510051437 60 250 0.0 1.0 0.00 0.00 0.00 77 1006.4
20260510050933 60 260 3.0 3.0 0.00 0.00 0.00 78 1006.4
20260510050430 60 253 1.0 1.0 0.00 0.00 0.00 78 1006.4
20260510045927 60 252 0.0 1.0 0.00 0.00 0.00 78 1006.4
20260510045425 59 252 1.0 2.0 0.00 0.00 0.00 78 1006.5
20260510044921 59 266 1.0 2.0 0.00 0.00 0.00 79 1006.4
20260510044418 59 270 1.0 1.0 0.00 0.00 0.00 79 1006.2
20260510043915 60 240 0.0 1.0 0.00 0.00 0.00 78 1006.3
20260510043411 60 258 1.0 1.0 0.00 0.00 0.00 78 1006.3
20260510042909 59 255 2.0 2.0 0.00 0.00 0.00 78 1006.2
20260510042405 60 246 0.0 0.0 0.00 0.00 0.00 78 1006.1
20260510041900 60 248 1.0 1.0 0.00 0.00 0.00 77 1006.2
20260510041358 60 270 1.0 1.0 0.00 0.00 0.00 77 1006.1
20260510040855 60 250 0.0 0.0 0.00 0.00 0.00 77 1006.0
20260510040352 60 240 0.0 0.0 0.00 0.00 0.00 78 1005.7
20260510035847 60 247 0.0 1.0 0.00 0.27 0.27 77 1005.8
20260510035344 61 253 0.0 1.0 0.00 0.27 0.27 76 1006.1
20260510034839 61 250 1.0 1.0 0.00 0.27 0.27 75 1005.9
20260510034337 61 281 2.0 2.0 0.00 0.27 0.27 75 1005.9
20260510033834 61 55 1.0 1.0 0.00 0.27 0.27 75 1005.7
20260510033330 61 265 1.0 1.0 0.00 0.27 0.27 74 1005.7
20260510032827 62 247 0.0 1.0 0.00 0.27 0.27 74 1006.0
20260510032324 62 271 1.0 2.0 0.00 0.27 0.27 73 1005.8
20260510031819 63 199 2.0 3.0 0.00 0.27 0.27 71 1005.7
20260510031315 63 240 1.0 1.0 0.00 0.27 0.27 71 1005.7
20260510030809 63 261 2.0 2.0 0.00 0.27 0.27 70 1005.7
20260510030306 63 264 1.0 2.0 0.00 0.27 0.27 70 1005.6
20260510025803 63 263 4.0 5.0 0.00 0.27 0.27 70 1005.6
20260510025301 63 259 2.0 2.0 0.00 0.27 0.27 70 1005.6
20260510024757 63 259 2.0 2.0 0.00 0.27 0.27 69 1005.7
20260510024254 63 271 2.0 2.0 0.00 0.27 0.27 70 1005.6
20260510023750 63 256 2.0 2.0 0.00 0.27 0.27 69 1005.7
20260510023247 64 267 3.0 3.0 0.00 0.27 0.27 69 1005.6
20260510022744 64 270 2.0 3.0 0.00 0.27 0.27 69 1005.6
20260510022244 64 231 0.0 1.0 0.00 0.27 0.27 68 1005.4
20260510021743 64 260 2.0 2.0 0.00 0.27 0.27 67 1005.4
20260510021241 64 279 4.0 5.0 0.00 0.27 0.27 67 1005.3
20260510020736 64 247 2.0 2.0 0.00 0.27 0.27 67 1005.1
20260510020226 64 262 2.0 2.0 0.00 0.27 0.27 67 1005.2
20260510015722 64 258 2.0 2.0 0.00 0.27 0.27 68 1005.1
20260510015218 64 250 2.0 2.0 0.00 0.27 0.27 67 1005.2
20260510014714 64 235 4.0 6.0 0.00 0.27 0.27 66 1005.0
20260510014211 64 248 2.0 3.0 0.00 0.27 0.27 66 1004.9
20260510013711 65 262 2.0 2.0 0.00 0.27 0.27 67 1004.7
20260510013208 65 262 2.0 2.0 0.00 0.27 0.27 66 1004.5
20260510012702 65 254 1.0 1.0 0.00 0.27 0.27 66 1004.6
20260510012157 65 264 3.0 3.0 0.00 0.27 0.27 66 1004.6
20260510011652 65 266 2.0 2.0 0.00 0.27 0.27 65 1004.6
20260510011149 65 276 2.0 2.0 0.00 0.27 0.27 65 1004.3
20260510010644 65 263 2.0 3.0 0.00 0.27 0.27 65 1004.4
20260510010142 66 270 3.0 3.0 0.00 0.27 0.27 64 1004.3
20260510005638 66 250 1.0 1.0 0.00 0.27 0.27 65 1004.2
20260510005135 66 243 1.0 2.0 0.00 0.27 0.27 64 1004.3
20260510004633 66 259 3.0 5.0 0.00 0.27 0.27 64 1004.3
20260510004131 66 251 2.0 2.0 0.00 0.27 0.27 63 1004.1
20260510003628 66 258 1.0 2.0 0.00 0.27 0.27 63 1004.1
20260510003124 66 255 1.0 1.0 0.00 0.27 0.27 63 1004.1
20260510002624 67 260 3.0 3.0 0.00 0.27 0.27 62 1004.2
20260510002121 67 254 3.0 3.0 0.00 0.27 0.27 61 1004.0
20260510001618 68 261 4.0 5.0 0.00 0.27 0.27 59 1004.0
20260510001117 68 267 2.0 2.0 0.00 0.27 0.27 59 1003.9
20260510000616 67 260 4.0 5.0 0.00 0.27 0.27 60 1003.7
20260510000114 68 262 3.0 5.0 0.00 0.27 0.27 59 1003.8
20260509235610 68 251 9.0 10.0 0.00 0.27 0.27 58 1003.7
20260509235107 68 268 3.0 3.0 0.00 0.27 0.27 59 1003.7
20260509234603 68 261 3.0 3.0 0.00 0.27 0.27 59 1003.6
20260509234101 68 263 5.0 7.0 0.00 0.27 0.27 58 1003.6
20260509233558 68 255 3.0 3.0 0.00 0.27 0.27 59 1003.8
20260509233055 68 270 4.0 5.0 0.00 0.27 0.27 60 1003.7
20260509232552 69 253 3.0 5.0 0.00 0.27 0.27 59 1003.7
20260509232049 68 262 4.0 5.0 0.00 0.27 0.27 59 1003.6
20260509231545 69 263 6.0 7.0 0.00 0.27 0.27 58 1003.6
20260509231043 69 282 4.0 6.0 0.00 0.27 0.27 58 1003.5
20260509230539 69 280 4.0 5.0 0.00 0.27 0.27 59 1003.6
20260509230037 69 276 3.0 5.0 0.00 0.27 0.27 58 1003.4
20260509225532 69 277 6.0 8.0 0.00 0.27 0.27 57 1003.3
20260509225028 70 257 3.0 5.0 0.00 0.27 0.27 58 1003.3
20260509224524 70 257 3.0 5.0 0.00 0.27 0.27 58 1003.4
20260509224021 69 265 7.0 8.0 0.00 0.27 0.27 58 1003.5
20260509223517 70 257 3.0 5.0 0.00 0.27 0.27 58 1003.5
20260509223016 70 286 5.0 7.0 0.00 0.27 0.27 58 1003.4
20260509222511 70 35 3.0 3.0 0.00 0.27 0.27 58 1003.3
20260509222007 70 269 5.0 6.0 0.00 0.27 0.27 59 1003.3
20260509221503 70 283 3.0 5.0 0.00 0.27 0.27 58 1003.5
20260509220959 70 240 5.0 7.0 0.00 0.27 0.27 59 1003.4
20260509220455 70 258 2.0 2.0 0.00 0.27 0.27 59 1003.3
20260509215951 70 254 3.0 5.0 0.00 0.27 0.27 60 1003.4
20260509215447 71 178 5.0 8.0 0.00 0.27 0.27 59 1003.4
20260509214945 70 266 3.0 3.0 0.00 0.27 0.27 58 1003.5
20260509214442 70 246 4.0 8.0 0.00 0.27 0.27 58 1003.5
20260509213938 71 151 5.0 7.0 0.00 0.27 0.27 57 1003.4
20260509213434 71 234 5.0 7.0 0.00 0.27 0.27 58 1003.5
20260509212931 70 278 6.0 8.0 0.00 0.27 0.27 60 1003.7
20260509212429 70 274 6.0 8.0 0.00 0.27 0.27 59 1003.6
20260509211925 70 273 4.0 5.0 0.00 0.27 0.27 60 1003.8
20260509211420 70 268 8.0 9.0 0.00 0.27 0.27 58 1003.7
20260509210917 70 247 3.0 5.0 0.00 0.27 0.27 61 1003.7
20260509210414 70 270 5.0 7.0 0.00 0.27 0.27 59 1003.7
20260509205909 70 259 1.0 2.0 0.00 0.27 0.27 61 1003.7
20260509205404 69 282 4.0 5.0 0.00 0.27 0.27 60 1003.7
20260509204900 70 257 5.0 6.0 0.00 0.27 0.27 60 1003.9
20260509204357 70 264 5.0 7.0 0.00 0.27 0.27 59 1003.7
20260509203853 70 258 5.0 6.0 0.00 0.27 0.27 59 1003.9
20260509203349 70 264 4.0 5.0 0.00 0.27 0.27 59 1003.8
20260509202847 70 287 2.0 2.0 0.00 0.27 0.27 61 1003.9
20260509202342 70 181 1.0 2.0 0.00 0.27 0.27 61 1003.7
20260509201838 70 217 1.0 1.0 0.00 0.27 0.27 61 1003.9
20260509201334 69 268 4.0 5.0 0.00 0.27 0.27 62 1004.1
20260509200830 69 104 3.0 6.0 0.00 0.27 0.27 63 1004.2
20260509200326 69 96 4.0 6.0 0.00 0.27 0.27 62 1004.1
20260509195823 69 278 8.0 9.0 0.00 0.27 0.27 62 1004.2
20260509195322 69 288 3.0 5.0 0.00 0.27 0.27 62 1004.3
20260509194822 69 198 5.0 7.0 0.00 0.27 0.27 62 1004.3
20260509194318 68 308 4.0 5.0 0.00 0.27 0.27 64 1004.3
20260509193815 69 289 2.0 2.0 0.00 0.27 0.27 63 1004.4
20260509193315 69 265 2.0 2.0 0.00 0.27 0.27 65 1004.5
20260509192811 69 276 3.0 3.0 0.00 0.27 0.27 63 1004.5